International Skating Union - Official Site

ESSENT ISU WORLD ALLROUND CHAMPIONSHIPS 2011
February 12-13, 2011

Draw | Lap Times | Index | Classification

Referee: Erik  ØSMUNDSET  (NOR)
Starter: Takeshi  USHIDA  (JPN)
StartTime: EndTime: Air Temp: Ice Temp: Humidity:
14:33 15:26 16℃ -8.5℃ 24%
Result 5000m Ladies
Rankings as of Feb 13 2011 3:30PM
Rank: No.: Name: Nation: Time: Behind: Points:
1 8 Stephanie  BECKERT GER GER 6:49.51200m - 21.16 - (21.1)
600m - 53.77 - (32.6)
1000m - 1:26.12 - (32.3)
1400m - 1:58.40 - (32.2)
1800m - 2:30.41 - (32.0)
2200m - 3:02.50 - (32.0)
2600m - 3:35.07 - (32.5)
3000m - 4:07.77 - (32.7)
3400m - 4:40.10 - (32.3)
3800m - 5:12.54 - (32.4)
4200m - 5:45.07 - (32.5)
4600m - 6:17.59 - (32.5)
5000m - 6:49.51 - (31.9)
40.951
2 16 Ireen  WÜST NED NED 6:55.85200m - 20.10 - (20.1)
600m - 51.04 - (30.9)
1000m - 1:23.05 - (32.0)
1400m - 1:55.84 - (32.7)
1800m - 2:28.46 - (32.6)
2200m - 3:00.05 - (31.5)
2600m - 3:32.79 - (32.7)
3000m - 4:05.37 - (32.5)
3400m - 4:38.68 - (33.3)
3800m - 5:12.08 - (33.4)
4200m - 5:46.10 - (34.0)
4600m - 6:20.84 - (34.7)
5000m - 6:55.85 - (35.0)
6.34 41.585
3 10 Masako  HOZUMI JPN JPN 6:56.35200m - 20.63 - (20.6)
600m - 52.49 - (31.8)
1000m - 1:24.40 - (31.9)
1400m - 1:56.68 - (32.2)
1800m - 2:29.03 - (32.3)
2200m - 3:01.53 - (32.5)
2600m - 3:34.21 - (32.6)
3000m - 4:07.20 - (32.9)
3400m - 4:40.27 - (33.0)
3800m - 5:13.97 - (33.7)
4200m - 5:47.56 - (33.5)
4600m - 6:21.92 - (34.3)
5000m - 6:56.35 - (34.4)
6.84 41.635
4 24 Jilleanne  ROOKARD USA USA 6:58.40200m - 20.61 - (20.6)
600m - 52.62 - (32.0)
1000m - 1:25.03 - (32.4)
1400m - 1:58.20 - (33.1)
1800m - 2:31.24 - (33.0)
2200m - 3:04.58 - (33.3)
2600m - 3:37.61 - (33.0)
3000m - 4:10.92 - (33.3)
3400m - 4:44.20 - (33.2)
3800m - 5:17.95 - (33.7)
4200m - 5:51.63 - (33.6)
4600m - 6:25.41 - (33.7)
5000m - 6:58.40 - (32.9)
8.89 41.840
5 15 Jorien  VOORHUIS NED NED 6:59.23200m - 20.33 - (20.3)
600m - 52.48 - (32.1)
1000m - 1:25.33 - (32.8)
1400m - 1:58.29 - (32.9)
1800m - 2:31.55 - (33.2)
2200m - 3:04.46 - (32.9)
2600m - 3:37.51 - (33.0)
3000m - 4:10.33 - (32.8)
3400m - 4:43.59 - (33.2)
3800m - 5:17.07 - (33.4)
4200m - 5:50.82 - (33.7)
4600m - 6:24.74 - (33.9)
5000m - 6:59.23 - (34.4)
9.72 41.923
6 3 Cindy  KLASSEN CAN CAN 6:59.54200m - 20.83 - (20.8)
600m - 53.39 - (32.5)
1000m - 1:26.76 - (33.3)
1400m - 1:59.99 - (33.2)
1800m - 2:32.69 - (32.7)
2200m - 3:05.19 - (32.5)
2600m - 3:37.89 - (32.7)
3000m - 4:10.51 - (32.6)
3400m - 4:43.16 - (32.6)
3800m - 5:16.12 - (32.9)
4200m - 5:49.41 - (33.2)
4600m - 6:23.85 - (34.4)
5000m - 6:59.54 - (35.6)
10.03 41.954
7 7 Martina  SÁBLIKOVÁ CZE CZE 7:00.04200m - 20.60 - (20.6)
600m - 52.12 - (31.5)
1000m - 1:24.23 - (32.1)
1400m - 1:56.24 - (32.0)
1800m - 2:28.17 - (31.9)
2200m - 3:00.19 - (32.0)
2600m - 3:32.02 - (31.8)
3000m - 4:04.41 - (32.3)
3400m - 4:45.29 - (40.8)
3800m - 5:22.65 - (37.3)
4200m - 5:55.07 - (32.4)
4600m - 6:27.59 - (32.5)
5000m - 7:00.04 - (32.4)
10.53 42.004
8 11 Eriko  ISHINO JPN JPN 7:00.84200m - 20.70 - (20.7)
600m - 52.87 - (32.1)
1000m - 1:24.90 - (32.0)
1400m - 1:56.93 - (32.0)
1800m - 2:29.34 - (32.4)
2200m - 3:01.96 - (32.6)
2600m - 3:35.18 - (33.2)
3000m - 4:08.79 - (33.6)
3400m - 4:42.71 - (33.9)
3800m - 5:16.90 - (34.1)
4200m - 5:51.26 - (34.3)
4600m - 6:26.19 - (34.9)
5000m - 7:00.84 - (34.6)
11.33 42.084
9 14 Diane  VALKENBURG NED NED 7:04.10200m - 20.89 - (20.8)
600m - 54.04 - (33.1)
1000m - 1:27.69 - (33.6)
1400m - 2:01.07 - (33.3)
1800m - 2:34.27 - (33.2)
2200m - 3:07.47 - (33.2)
2600m - 3:40.78 - (33.3)
3000m - 4:13.99 - (33.2)
3400m - 4:47.63 - (33.6)
3800m - 5:21.18 - (33.5)
4200m - 5:55.16 - (33.9)
4600m - 6:29.28 - (34.1)
5000m - 7:04.10 - (34.8)
14.59 42.410
10 13 Marrit  LEENSTRA NED NED 7:06.74200m - 20.09 - (20.0)
600m - 52.48 - (32.3)
1000m - 1:25.92 - (33.4)
1400m - 1:59.32 - (33.4)
1800m - 2:32.67 - (33.3)
2200m - 3:05.74 - (33.0)
2600m - 3:39.33 - (33.5)
3000m - 4:13.11 - (33.7)
3400m - 4:47.11 - (34.0)
3800m - 5:21.48 - (34.3)
4200m - 5:56.38 - (34.9)
4600m - 6:31.34 - (34.9)
5000m - 7:06.74 - (35.4)
17.23 42.674
11 5 Brittany  SCHUSSLER CAN CAN 7:07.05200m - 21.06 - (21.0)
600m - 52.74 - (31.6)
1000m - 1:25.25 - (32.5)
1400m - 1:58.54 - (33.2)
1800m - 2:32.53 - (33.9)
2200m - 3:06.00 - (33.4)
2600m - 3:39.62 - (33.6)
3000m - 4:13.72 - (34.1)
3400m - 4:47.84 - (34.1)
3800m - 5:22.11 - (34.2)
4200m - 5:56.98 - (34.8)
4600m - 6:31.90 - (34.9)
5000m - 7:07.05 - (35.1)
17.54 42.705
12 4 Christine  NESBITT CAN CAN 7:09.06200m - 21.13 - (21.1)
600m - 53.51 - (32.3)
1000m - 1:26.64 - (33.1)
1400m - 1:59.81 - (33.1)
1800m - 2:32.83 - (33.0)
2200m - 3:06.36 - (33.5)
2600m - 3:39.89 - (33.5)
3000m - 4:13.76 - (33.8)
3400m - 4:47.73 - (33.9)
3800m - 5:22.16 - (34.4)
4200m - 5:56.71 - (34.5)
4600m - 6:32.14 - (35.4)
5000m - 7:09.06 - (36.9)
19.55 42.906